TimeEST,TemperatureF,Dew PointF,Humidity,Sea Level PressureIn,VisibilityMPH,Wind Direction,Wind SpeedMPH,Gust SpeedMPH,PrecipitationIn,Events,Conditions,WindDirDegrees,DateUTC
12:53 AM,35.1,24.1,64,30.50,10.0,NE,5.8,-,N/A,,Clear,50,2012-11-14 05:53:00
1:53 AM,34.0,24.1,67,30.49,10.0,ENE,5.8,-,N/A,,Clear,60,2012-11-14 06:53:00
2:53 AM,34.0,24.1,67,30.50,10.0,NE,4.6,-,N/A,,Clear,50,2012-11-14 07:53:00
3:53 AM,32.0,24.1,73,30.51,10.0,Calm,Calm,-,N/A,,Clear,0,2012-11-14 08:53:00
4:53 AM,30.9,24.1,76,30.50,10.0,North,3.5,-,N/A,,Clear,350,2012-11-14 09:53:00
5:53 AM,30.0,24.1,79,30.51,10.0,Calm,Calm,-,N/A,,Clear,0,2012-11-14 10:53:00
6:53 AM,30.2,24.8,80,30.49,10.0,NNE,3.5,-,N/A,,Clear,30,2012-11-14 11:53:00
7:53 AM,32.0,25.0,75,30.50,10.0,ENE,4.6,-,N/A,,Clear,60,2012-11-14 12:53:00
8:53 AM,34.0,25.0,70,30.52,10.0,ENE,5.8,-,N/A,,Clear,60,2012-11-14 13:53:00
9:53 AM,37.0,26.1,65,30.53,10.0,NE,5.8,-,N/A,,Clear,50,2012-11-14 14:53:00
10:53 AM,41.0,27.0,57,30.52,10.0,NE,3.5,-,N/A,,Clear,50,2012-11-14 15:53:00
11:53 AM,43.0,27.0,53,30.49,10.0,ENE,4.6,-,N/A,,Clear,60,2012-11-14 16:53:00
12:53 PM,45.0,27.0,49,30.45,10.0,East,5.8,-,N/A,,Clear,90,2012-11-14 17:53:00
1:53 PM,46.0,28.0,50,30.44,10.0,Variable,5.8,-,N/A,,Clear,0,2012-11-14 18:53:00
2:53 PM,45.0,28.0,52,30.41,10.0,ENE,6.9,-,N/A,,Clear,60,2012-11-14 19:53:00
3:53 PM,46.9,28.0,48,30.40,10.0,ENE,5.8,-,N/A,,Clear,70,2012-11-14 20:53:00
4:53 PM,45.0,28.0,52,30.41,10.0,Calm,Calm,-,N/A,,Clear,0,2012-11-14 21:53:00
5:53 PM,43.0,28.9,58,30.40,10.0,NNE,4.6,-,N/A,,Clear,30,2012-11-14 22:53:00
6:53 PM,42.1,28.9,60,30.40,10.0,NE,4.6,-,N/A,,Clear,40,2012-11-14 23:53:00
7:53 PM,41.0,28.0,60,30.41,10.0,ENE,3.5,-,N/A,,Clear,70,2012-11-15 00:53:00
8:53 PM,39.9,28.0,63,30.40,10.0,NE,3.5,-,N/A,,Clear,40,2012-11-15 01:53:00
9:53 PM,37.9,28.0,68,30.40,10.0,Calm,Calm,-,N/A,,Clear,0,2012-11-15 02:53:00
10:53 PM,34.0,27.0,75,30.39,10.0,Calm,Calm,-,N/A,,Clear,0,2012-11-15 03:53:00
11:53 PM,33.1,27.0,78,30.39,10.0,Calm,Calm,-,N/A,,Clear,0,2012-11-15 04:53:00